Regional Weather Roundup
Issued by NWS Northern Indiana

Home | Current Version | Previous Version | Text Only | Print | Product List | Glossary On
Versions: 1 2 3 4 5 6 7 8 9 10 11 12 13 14 15 16 17 18 19 20 21 22 23 24 25 26 27 28 29 30 31 32 33 34 35 36 37 38 39 40 41 42 43 44 45 46 47 48 49 50
000
ASUS43 KIWX 291710
RWRIWX

KIWX WEATHER ROUNDUP
NATIONAL WEATHER SERVICE NORTHERN INDIANA
100 PM EDT SAT AUG 29 2015

NOTE: "FAIR" INDICATES FEW OR NO CLOUDS BELOW 12,000 FEET WITH NO
SIGNIFICANT WEATHER AND/OR OBSTRUCTIONS TO VISIBILITY.

* THESE STATIONS ARE NOT UNDER NWS QUALITY CONTROL. THEY ALSO MAY NOT
  REPORT WEATHER SUCH AS PRECIPITATION OR FOG.

INZ001>027-291800-
NORTHERN INDIANA

CITY           SKY/WX    TMP DP  RH WIND       PRES   REMARKS
GARY*          CLOUDY    73  64  73 SE8       30.05F
VALPARAISO     CLOUDY    69  65  86 SE7       30.07S
MICHIGAN CITY* CLOUDY    68  64  88 SE5       30.07R
LAPORTE*       CLOUDY    69  69 100 SE7       30.08S
KNOX*          CLOUDY    70  64  83 SE3       30.06F
SOUTH BEND     LGT RAIN  66  66 100 SE8       30.08F
ELKHART*       LGT RAIN  66  64  94 CALM      30.08F
GOSHEN         LGT RAIN  71  64  78 S5        30.09F
MONTICELLO*    CLOUDY    76  67  74 S6        30.07S
LOGANSPORT*    CLOUDY    77  61  57 S6        30.09F
ROCHESTER*     CLOUDY    81  64  57 SW7       30.08F
WARSAW*        CLOUDY    73  64  73 S3        30.09F
ANGOLA*        MOSUNNY   72  63  73 CALM      30.10F
FORT WAYNE     CLOUDY    78  66  66 CALM      30.10F
HUNTINGTON*    CLOUDY    77  62  60 SW3       30.09F
PERU/GRISSOM   CLOUDY    78  66  67 SW9       30.08F
MARION*        CLOUDY    77  57  49 SW7       30.11S

$$
INZ028>050-291800-
CENTRAL INDIANA

CITY           SKY/WX    TMP DP  RH WIND       PRES   REMARKS
LAFAYETTE      CLOUDY    76  65  68 S3        30.07F
KOKOMO*        CLOUDY    79  64  61 SW7       30.09F
MUNCIE*        CLOUDY    78  65  63 SW7       30.11S
INDIANAPOLIS   CLOUDY    78  66  66 SW7       30.09S

$$
MIZ043>046-050>051-056>058-064>065-071>073-077>080-291800-
SOUTHWEST LOWER MICHIGAN

CITY           SKY/WX    TMP DP  RH WIND       PRES   REMARKS
BATTLE CREEK   LGT RAIN  66  63  90 E5        30.11F
BENTON HARBOR  RAIN      65  63  93 NE3       30.07S FOG
COLDWATER*     RAIN      69  64  84 SE3       30.10F
HILLSDALE*     CLOUDY    71  67  87 CALM      30.12F
HOLLAND        LGT RAIN  67  63  87 SE7       30.08F
GRAND RAPIDS   CLOUDY    67  63  87 E5        30.10S
KALAMAZOO      CLOUDY    66  62  87 S5        30.10F
STURGIS*       CLOUDY    68  64  88 E3        30.09F
THREE RIVERS*  FAIR      66  65  94 E3        30.10S

$$
OHZ001>008-015>018-024>025-291800-
NORTHWEST OHIO

CITY           SKY/WX    TMP DP  RH WIND       PRES   REMARKS
WAUSEON*       FAIR      77  64  65 SE5       30.11F
DEFIANCE       PTSUNNY   80  62  54 CALM      30.10F
FINDLAY        MOSUNNY   81  66  60 MISG      30.11F
TOLEDO EXPRESS PTSUNNY   77  62  59 SE7       30.10F
TOLEDO METCALF PTSUNNY   78  60  53 S6        30.12F
LIMA           MOSUNNY   81  66  60 SW8       30.12F

$$
AND FOR LAKE MICHIGAN COASTAL AND OPEN LAKE BUOY OBSERVATIONS

STATION/POSITION TEMP    WIND        PRES    VSBY  WAVE
                 AIR SEA DIR/SP/G                  HT/PER
                 (F)     (DEG/KT/KT) (MB)    (MI)  (FT/S)
MICHIGAN CITY     65     100/  7/  9   N/A
BURNS HARBOR      69     170/  8/ 12 1017.9F
SAINT JOSEPH      65     350/  3/  4 1019.3S
SOUTH LAKE BUOY   66 68  130/ 14/ 14 1017.2F
4 MI NW BRIDGMAN  67 70  200/ 12/ 16   N/A           1
MICHIGAN CITY     68 71  140/  6/  8   N/A           1

$$
&&



USA.gov is the U.S. government's official web portal to all federal, state and local government web resources and services.